FALCONSAT-3 (30776 NORAD) Tracking and Keplerian Element Data

This shows tracking and keplerian element data for the satellite.

Feedback or suggestion? Click here.




ElementValue
Catalog30776
NameFALCONSAT-3
Epoch Orbit64815
Epoch Day323.21000215
Epoch Year2018
RAAN359.376
Inclination35.4366
Eccentricity0.0002925
Argument of Perigee340.2865
Mean Anonmoly19.7748
Mean Motion15.35222787
Decay Rate2.202E-05
L11 30776U 07006E 18323.21000215 .00002202 00000-0 64362-4 0 9995
L22 30776 35.4366 359.3760 0002925 340.2865 19.7748 15.35222787648153

Live tracking and technical data element details for FALCONSAT-3 (NORAD 30776). FALCONSAT-3 can be tracked NOW for your location showing map with azimuth and elevation plus other details from your city location.

Track the satellite on the map from your city or location and see movement details for azimuth, elevation, latitude, longitude, range, height, and movement on the map or in text.







IsCatalogInMostPopularTable: catalog: 30776, numindb: 74
Update: records affected: 1



GetName: 30776 FALCONSAT-3

Hit Count: updated at: Tue, 20 Nov 2018 00:57:18 GMT